Time,TemperatureF,DewpointF,PressureIn,WindDirection,WindDirectionDegrees,WindSpeedMPH,WindSpeedGustMPH,Humidity,HourlyPrecipIn,Conditions,Clouds,dailyrainin,SoftwareType,DateUTC
2013-03-08 00:01:00,40.0,39.0,30.07,North,9,0.0,2.0,95,-99.99,,,-99.99,,2013-03-08 08:01:00,
2013-03-08 00:11:00,40.0,39.0,30.07,North,9,0.0,2.0,95,-99.99,,,-99.99,,2013-03-08 08:11:00,
2013-03-08 00:21:00,39.0,38.0,30.07,North,9,0.0,1.0,95,-99.99,,,-99.99,,2013-03-08 08:21:00,
2013-03-08 00:31:00,39.0,38.0,30.07,North,9,0.0,0.0,95,-99.99,,,-99.99,,2013-03-08 08:31:00,
2013-03-08 00:41:00,39.0,38.0,30.07,North,9,0.0,0.0,95,-99.99,,,-99.99,,2013-03-08 08:41:00,
2013-03-08 00:52:00,38.0,37.0,30.06,North,9,0.0,1.0,95,-99.99,,,-99.99,,2013-03-08 08:52:00,
2013-03-08 01:02:00,38.0,37.0,30.06,North,9,1.0,2.0,95,-99.99,,,-99.99,,2013-03-08 09:02:00,
2013-03-08 01:11:00,38.0,37.0,30.06,North,9,1.0,2.0,95,-99.99,,,-99.99,,2013-03-08 09:11:00,
2013-03-08 01:21:00,38.0,37.0,30.06,NNW,327,0.0,4.0,95,-99.99,,,-99.99,,2013-03-08 09:21:00,
2013-03-08 01:31:00,38.0,37.0,30.06,NNW,327,0.0,2.0,95,-99.99,,,-99.99,,2013-03-08 09:31:00,
2013-03-08 01:41:00,38.0,37.0,30.06,NNW,327,0.0,2.0,95,-99.99,,,-99.99,,2013-03-08 09:41:00,
2013-03-08 01:52:00,37.0,36.0,30.06,NNW,327,0.0,0.0,95,-99.99,,,-99.99,,2013-03-08 09:52:00,
2013-03-08 02:01:00,37.0,36.0,30.06,NNW,327,0.0,1.0,96,-99.99,,,-99.99,,2013-03-08 10:01:00,
2013-03-08 02:11:00,37.0,36.0,30.06,NNW,327,0.0,1.0,96,-99.99,,,-99.99,,2013-03-08 10:11:00,
2013-03-08 02:21:00,37.0,36.0,30.06,NNW,327,0.0,1.0,96,-99.99,,,-99.99,,2013-03-08 10:21:00,
2013-03-08 02:31:00,37.0,36.0,30.06,NNW,327,0.0,1.0,96,-99.99,,,-99.99,,2013-03-08 10:31:00,
2013-03-08 02:41:00,37.0,36.0,30.06,NNW,327,0.0,1.0,96,-99.99,,,-99.99,,2013-03-08 10:41:00,
2013-03-08 02:51:00,37.0,36.0,30.06,NNW,327,0.0,1.0,96,-99.99,,,-99.99,,2013-03-08 10:51:00,
2013-03-08 03:01:00,37.0,36.0,30.06,NNW,327,0.0,0.0,96,-99.99,,,-99.99,,2013-03-08 11:01:00,
2013-03-08 03:11:00,37.0,36.0,30.06,NNW,327,0.0,0.0,96,-99.99,,,-99.99,,2013-03-08 11:11:00,
2013-03-08 03:21:00,36.0,35.0,30.06,NNW,327,0.0,0.0,96,-99.99,,,-99.99,,2013-03-08 11:21:00,
2013-03-08 03:32:00,37.0,36.0,30.05,NNW,327,0.0,1.0,96,-99.99,,,-99.99,,2013-03-08 11:32:00,
2013-03-08 03:41:00,37.0,36.0,30.05,NNW,327,0.0,1.0,96,-99.99,,,-99.99,,2013-03-08 11:41:00,
2013-03-08 03:52:00,37.0,36.0,30.05,NNW,327,0.0,0.0,96,-99.99,,,-99.99,,2013-03-08 11:52:00,
2013-03-08 04:01:00,37.0,36.0,30.05,NNW,327,0.0,2.0,96,-99.99,,,-99.99,,2013-03-08 12:01:00,
2013-03-08 04:11:00,37.0,36.0,30.05,NNW,327,0.0,2.0,96,-99.99,,,-99.99,,2013-03-08 12:11:00,
2013-03-08 04:22:00,36.0,35.0,30.05,NNW,327,0.0,1.0,96,-99.99,,,-99.99,,2013-03-08 12:22:00,
2013-03-08 04:32:00,36.0,35.0,30.05,NNW,327,0.0,1.0,96,-99.99,,,-99.99,,2013-03-08 12:32:00,
2013-03-08 04:42:00,36.0,35.0,30.05,NNW,327,0.0,1.0,96,-99.99,,,-99.99,,2013-03-08 12:42:00,
2013-03-08 04:52:00,36.0,35.0,30.05,NNW,327,0.0,0.0,96,-99.99,,,-99.99,,2013-03-08 12:52:00,
2013-03-08 05:01:00,35.0,34.0,30.05,NNW,327,0.0,0.0,96,-99.99,,,-99.99,,2013-03-08 13:01:00,
2013-03-08 05:11:00,35.0,34.0,30.05,NNW,327,0.0,0.0,96,-99.99,,,-99.99,,2013-03-08 13:11:00,
2013-03-08 05:21:00,35.0,34.0,30.06,NNW,327,0.0,0.0,96,-99.99,,,-99.99,,2013-03-08 13:21:00,
2013-03-08 05:32:00,36.0,35.0,30.06,NNW,327,0.0,0.0,96,-99.99,,,-99.99,,2013-03-08 13:32:00,
2013-03-08 05:42:00,36.0,35.0,30.06,NNW,327,0.0,0.0,96,-99.99,,,-99.99,,2013-03-08 13:42:00,
2013-03-08 05:52:00,36.0,35.0,30.06,NNW,327,0.0,1.0,96,-99.99,,,-99.99,,2013-03-08 13:52:00,
2013-03-08 06:02:00,36.0,35.0,30.06,NNW,327,0.0,1.0,96,-99.99,,,-99.99,,2013-03-08 14:02:00,
2013-03-08 06:11:00,36.0,35.0,30.06,NNW,327,0.0,1.0,96,-99.99,,,-99.99,,2013-03-08 14:11:00,
2013-03-08 06:21:00,36.0,35.0,30.07,NNW,328,1.0,2.0,96,-99.99,,,-99.99,,2013-03-08 14:21:00,
2013-03-08 06:32:00,36.0,35.0,30.07,NNW,331,0.0,3.0,96,-99.99,,,-99.99,,2013-03-08 14:32:00,
2013-03-08 06:41:00,36.0,35.0,30.07,NNW,331,0.0,3.0,96,-99.99,,,-99.99,,2013-03-08 14:41:00,
2013-03-08 06:52:00,36.0,35.0,30.07,NNW,331,0.0,2.0,96,-99.99,,,-99.99,,2013-03-08 14:52:00,
2013-03-08 07:02:00,35.0,34.0,30.07,NNW,331,0.0,1.0,96,-99.99,,,-99.99,,2013-03-08 15:02:00,
2013-03-08 07:11:00,35.0,34.0,30.07,NNW,331,0.0,2.0,96,-99.99,,,-99.99,,2013-03-08 15:11:00,
2013-03-08 07:21:00,35.0,34.0,30.07,NNW,331,0.0,2.0,96,-99.99,,,-99.99,,2013-03-08 15:21:00,
2013-03-08 07:31:00,35.0,34.0,30.07,NNW,331,2.0,3.0,96,-99.99,,,-99.99,,2013-03-08 15:31:00,
2013-03-08 07:42:00,35.0,34.0,30.07,NNW,331,2.0,3.0,96,-99.99,,,-99.99,,2013-03-08 15:42:00,
2013-03-08 07:52:00,35.0,34.0,30.07,NNE,32,0.0,3.0,96,-99.99,,,-99.99,,2013-03-08 15:52:00,
2013-03-08 08:01:00,35.0,34.0,30.07,NNE,32,0.0,3.0,96,-99.99,,,-99.99,,2013-03-08 16:01:00,
2013-03-08 08:11:00,35.0,34.0,30.07,NNE,32,0.0,3.0,96,-99.99,,,-99.99,,2013-03-08 16:11:00,
2013-03-08 08:21:00,35.0,34.0,30.08,NNE,32,0.0,2.0,96,-99.99,,,-99.99,,2013-03-08 16:21:00,
2013-03-08 08:31:00,34.0,33.0,30.09,NNW,340,1.0,3.0,96,-99.99,,,-99.99,,2013-03-08 16:31:00,
2013-03-08 08:42:00,34.0,33.0,30.09,NNW,340,1.0,3.0,96,-99.99,,,-99.99,,2013-03-08 16:42:00,
2013-03-08 08:52:00,34.0,33.0,30.09,NNW,342,0.0,4.0,96,-99.99,,,-99.99,,2013-03-08 16:52:00,
2013-03-08 09:02:00,34.0,33.0,30.10,NNW,342,0.0,3.0,96,-99.99,,,-99.99,,2013-03-08 17:02:00,
2013-03-08 09:11:00,34.0,33.0,30.10,NNW,342,0.0,3.0,96,-99.99,,,-99.99,,2013-03-08 17:11:00,
2013-03-08 09:21:00,35.0,34.0,30.10,NNW,342,0.0,2.0,96,-99.99,,,-99.99,,2013-03-08 17:21:00,
2013-03-08 09:31:00,36.0,35.0,30.10,NNW,343,1.0,4.0,96,-99.99,,,-99.99,,2013-03-08 17:31:00,
2013-03-08 09:41:00,36.0,35.0,30.10,NNW,343,1.0,4.0,96,-99.99,,,-99.99,,2013-03-08 17:41:00,
2013-03-08 09:52:00,38.0,37.0,30.10,NNW,344,0.0,3.0,97,-99.99,,,-99.99,,2013-03-08 17:52:00,
2013-03-08 10:01:00,38.0,37.0,30.11,NNW,344,0.0,2.0,97,-99.99,,,-99.99,,2013-03-08 18:01:00,
2013-03-08 10:11:00,38.0,37.0,30.11,NNW,344,0.0,2.0,97,-99.99,,,-99.99,,2013-03-08 18:11:00,
2013-03-08 10:21:00,39.0,38.0,30.11,NNW,344,0.0,2.0,97,-99.99,,,-99.99,,2013-03-08 18:21:00,
2013-03-08 10:31:00,40.0,39.0,30.11,NNW,344,1.0,2.0,97,-99.99,,,-99.99,,2013-03-08 18:31:00,
2013-03-08 10:42:00,40.0,39.0,30.11,NNW,344,1.0,2.0,97,-99.99,,,-99.99,,2013-03-08 18:42:00,
2013-03-08 10:52:00,41.0,40.0,30.11,North,355,0.0,4.0,97,-99.99,,,-99.99,,2013-03-08 18:52:00,
2013-03-08 11:01:00,42.0,41.0,30.10,NE,53,2.0,4.0,97,-99.99,,,-99.99,,2013-03-08 19:01:00,
2013-03-08 11:11:00,42.0,41.0,30.10,NE,53,2.0,4.0,97,-99.99,,,-99.99,,2013-03-08 19:11:00,
2013-03-08 11:21:00,44.0,41.0,30.11,ENE,65,2.0,5.0,90,-99.99,,,-99.99,,2013-03-08 19:21:00,
2013-03-08 11:31:00,44.0,40.0,30.11,NE,49,1.0,5.0,86,-99.99,,,-99.99,,2013-03-08 19:31:00,
2013-03-08 11:41:00,44.0,40.0,30.11,NE,49,1.0,5.0,86,-99.99,,,-99.99,,2013-03-08 19:41:00,
2013-03-08 11:52:00,46.0,40.0,30.11,East,90,0.0,4.0,78,-99.99,,,-99.99,,2013-03-08 19:52:00,
2013-03-08 12:01:00,48.0,40.0,30.10,North,5,2.0,4.0,74,-99.99,,,-99.99,,2013-03-08 20:01:00,
2013-03-08 12:11:00,48.0,40.0,30.10,North,5,2.0,4.0,74,-99.99,,,-99.99,,2013-03-08 20:11:00,
2013-03-08 12:21:00,48.0,39.0,30.10,NE,53,0.0,5.0,71,-99.99,,,-99.99,,2013-03-08 20:21:00,
2013-03-08 12:31:00,49.0,39.0,30.10,NE,39,1.0,4.0,69,-99.99,,,-99.99,,2013-03-08 20:31:00,
2013-03-08 12:41:00,49.0,39.0,30.10,NE,39,1.0,4.0,69,-99.99,,,-99.99,,2013-03-08 20:41:00,
2013-03-08 12:52:00,49.0,39.0,30.09,NE,44,3.0,6.0,68,-99.99,,,-99.99,,2013-03-08 20:52:00,
2013-03-08 13:01:00,49.0,39.0,30.09,NNW,337,1.0,5.0,68,-99.99,,,-99.99,,2013-03-08 21:01:00,
2013-03-08 13:11:00,49.0,39.0,30.09,NNW,337,1.0,5.0,68,-99.99,,,-99.99,,2013-03-08 21:11:00,
2013-03-08 13:21:00,51.0,40.0,30.09,WSW,247,1.0,4.0,65,-99.99,,,-99.99,,2013-03-08 21:21:00,
2013-03-08 13:32:00,51.0,38.0,30.09,ENE,59,3.0,4.0,61,-99.99,,,-99.99,,2013-03-08 21:32:00,
2013-03-08 13:41:00,51.0,38.0,30.09,ENE,59,3.0,4.0,61,-99.99,,,-99.99,,2013-03-08 21:41:00,
2013-03-08 13:52:00,50.0,39.0,30.09,NE,38,3.0,6.0,65,-99.99,,,-99.99,,2013-03-08 21:52:00,
2013-03-08 14:01:00,50.0,39.0,30.09,NE,45,1.0,3.0,66,-99.99,,,-99.99,,2013-03-08 22:01:00,
2013-03-08 14:11:00,50.0,39.0,30.09,NE,45,1.0,3.0,66,-99.99,,,-99.99,,2013-03-08 22:11:00,
2013-03-08 14:21:00,51.0,40.0,30.09,NNW,340,0.0,5.0,65,-99.99,,,-99.99,,2013-03-08 22:21:00,
2013-03-08 14:32:00,50.0,40.0,30.09,NW,323,0.0,10.0,68,-99.99,,,-99.99,,2013-03-08 22:32:00,
2013-03-08 14:41:00,50.0,40.0,30.09,NW,323,0.0,10.0,68,-99.99,,,-99.99,,2013-03-08 22:41:00,
2013-03-08 14:52:00,52.0,40.0,30.09,NNW,348,0.0,4.0,64,-99.99,,,-99.99,,2013-03-08 22:52:00,
2013-03-08 15:01:00,52.0,40.0,30.09,NNW,348,2.0,9.0,64,-99.99,,,-99.99,,2013-03-08 23:01:00,
2013-03-08 15:11:00,52.0,40.0,30.09,NNW,348,2.0,9.0,64,-99.99,,,-99.99,,2013-03-08 23:11:00,
2013-03-08 15:21:00,51.0,39.0,30.10,NW,315,3.0,6.0,64,-99.99,,,-99.99,,2013-03-08 23:21:00,
2013-03-08 15:31:00,51.0,39.0,30.10,NNW,346,3.0,10.0,63,-99.99,,,-99.99,,2013-03-08 23:31:00,
2013-03-08 15:41:00,51.0,39.0,30.10,NNW,346,3.0,10.0,63,-99.99,,,-99.99,,2013-03-08 23:41:00,
2013-03-08 15:52:00,51.0,39.0,30.10,NNW,346,3.0,10.0,63,-99.99,,,-99.99,,2013-03-08 23:52:00,
2013-03-08 16:01:00,50.0,38.0,30.10,NW,309,1.0,10.0,64,-99.99,,,-99.99,,2013-03-09 00:01:00,
2013-03-08 16:11:00,50.0,38.0,30.10,NW,309,1.0,10.0,64,-99.99,,,-99.99,,2013-03-09 00:11:00,
2013-03-08 16:21:00,50.0,39.0,30.10,NW,321,3.0,7.0,67,-99.99,,,-99.99,,2013-03-09 00:21:00,
2013-03-08 16:31:00,49.0,39.0,30.10,North,3,3.0,5.0,68,-99.99,,,-99.99,,2013-03-09 00:31:00,
2013-03-08 16:41:00,49.0,39.0,30.10,North,3,3.0,5.0,68,-99.99,,,-99.99,,2013-03-09 00:41:00,
2013-03-08 16:52:00,49.0,39.0,30.10,WSW,238,1.0,6.0,69,-99.99,,,-99.99,,2013-03-09 00:52:00,
2013-03-08 17:01:00,48.0,39.0,30.11,North,354,2.0,6.0,71,-99.99,,,-99.99,,2013-03-09 01:01:00,
2013-03-08 17:12:00,48.0,39.0,30.11,NNW,343,3.0,7.0,71,-99.99,,,-99.99,,2013-03-09 01:12:00,
2013-03-08 17:21:00,48.0,39.0,30.11,NNW,343,3.0,7.0,71,-99.99,,,-99.99,,2013-03-09 01:21:00,
2013-03-08 17:31:00,47.0,38.0,30.11,NNW,339,2.0,12.0,72,-99.99,,,-99.99,,2013-03-09 01:31:00,
2013-03-08 17:41:00,47.0,38.0,30.11,NNW,339,2.0,12.0,72,-99.99,,,-99.99,,2013-03-09 01:41:00,
2013-03-08 17:51:00,47.0,39.0,30.12,NNW,330,1.0,11.0,73,-99.99,,,-99.99,,2013-03-09 01:51:00,
2013-03-08 18:01:00,46.0,39.0,30.12,NNW,333,1.0,5.0,75,-99.99,,,-99.99,,2013-03-09 02:01:00,
2013-03-08 18:11:00,46.0,39.0,30.12,NNW,333,1.0,5.0,75,-99.99,,,-99.99,,2013-03-09 02:11:00,
2013-03-08 18:21:00,45.0,38.0,30.12,West,263,1.0,5.0,77,-99.99,,,-99.99,,2013-03-09 02:21:00,
2013-03-08 18:31:00,45.0,39.0,30.13,NNW,332,0.0,5.0,78,-99.99,,,-99.99,,2013-03-09 02:31:00,
2013-03-08 18:41:00,44.0,38.0,30.13,NNW,332,0.0,4.0,79,-99.99,,,-99.99,,2013-03-09 02:41:00,
2013-03-08 18:51:00,44.0,38.0,30.13,NNW,332,0.0,4.0,79,-99.99,,,-99.99,,2013-03-09 02:51:00,
2013-03-08 19:01:00,43.0,37.0,30.15,NNW,332,0.0,4.0,80,-99.99,,,-99.99,,2013-03-09 03:01:00,
2013-03-08 19:11:00,43.0,37.0,30.15,NNW,332,0.0,4.0,80,-99.99,,,-99.99,,2013-03-09 03:11:00,
2013-03-08 19:21:00,43.0,37.0,30.15,NNW,332,0.0,3.0,80,-99.99,,,-99.99,,2013-03-09 03:21:00,
2013-03-08 19:31:00,42.0,37.0,30.15,NNW,332,0.0,2.0,81,-99.99,,,-99.99,,2013-03-09 03:31:00,
2013-03-08 19:41:00,42.0,37.0,30.15,NNW,332,0.0,2.0,81,-99.99,,,-99.99,,2013-03-09 03:41:00,
2013-03-08 19:52:00,42.0,37.0,30.16,NNW,332,0.0,2.0,82,-99.99,,,-99.99,,2013-03-09 03:52:00,
2013-03-08 20:01:00,42.0,37.0,30.16,NNW,332,1.0,2.0,82,-99.99,,,-99.99,,2013-03-09 04:01:00,
2013-03-08 20:11:00,42.0,37.0,30.16,NNW,332,1.0,2.0,82,-99.99,,,-99.99,,2013-03-09 04:11:00,
2013-03-08 20:22:00,42.0,37.0,30.16,NNW,332,0.0,3.0,81,-99.99,,,-99.99,,2013-03-09 04:22:00,
2013-03-08 20:31:00,42.0,37.0,30.17,NNW,332,0.0,1.0,81,-99.99,,,-99.99,,2013-03-09 04:31:00,
2013-03-08 20:41:00,42.0,37.0,30.17,NNW,332,0.0,1.0,81,-99.99,,,-99.99,,2013-03-09 04:41:00,
2013-03-08 20:52:00,41.0,36.0,30.17,NNW,332,0.0,1.0,81,-99.99,,,-99.99,,2013-03-09 04:52:00,
2013-03-08 21:01:00,41.0,36.0,30.18,NNW,332,0.0,0.0,82,-99.99,,,-99.99,,2013-03-09 05:01:00,
2013-03-08 21:11:00,41.0,36.0,30.18,NNW,332,0.0,0.0,82,-99.99,,,-99.99,,2013-03-09 05:11:00,
2013-03-08 21:21:00,40.0,35.0,30.18,NNW,332,0.0,0.0,83,-99.99,,,-99.99,,2013-03-09 05:21:00,
2013-03-08 21:31:00,40.0,36.0,30.18,NNW,332,0.0,0.0,84,-99.99,,,-99.99,,2013-03-09 05:31:00,
2013-03-08 21:42:00,40.0,36.0,30.18,NNW,332,0.0,0.0,84,-99.99,,,-99.99,,2013-03-09 05:42:00,
2013-03-08 21:53:00,40.0,36.0,30.19,NNW,332,0.0,0.0,85,-99.99,,,-99.99,,2013-03-09 05:53:00,
2013-03-08 22:01:00,39.0,35.0,30.19,NNW,332,0.0,0.0,86,-99.99,,,-99.99,,2013-03-09 06:01:00,
2013-03-08 22:11:00,39.0,35.0,30.19,NNW,332,0.0,1.0,86,-99.99,,,-99.99,,2013-03-09 06:11:00,
2013-03-08 22:22:00,39.0,35.0,30.19,NNW,332,0.0,1.0,86,-99.99,,,-99.99,,2013-03-09 06:22:00,
2013-03-08 22:31:00,38.0,35.0,30.19,NNW,332,0.0,0.0,88,-99.99,,,-99.99,,2013-03-09 06:31:00,
2013-03-08 22:41:00,38.0,35.0,30.19,NNW,332,0.0,0.0,88,-99.99,,,-99.99,,2013-03-09 06:41:00,
2013-03-08 22:51:00,38.0,35.0,30.19,NNW,332,0.0,0.0,88,-99.99,,,-99.99,,2013-03-09 06:51:00,
2013-03-08 23:01:00,38.0,35.0,30.20,NNW,332,0.0,0.0,89,-99.99,,,-99.99,,2013-03-09 07:01:00,
2013-03-08 23:11:00,38.0,35.0,30.20,NNW,332,0.0,0.0,89,-99.99,,,-99.99,,2013-03-09 07:11:00,
2013-03-08 23:21:00,38.0,36.0,30.21,NNW,332,0.0,0.0,91,-99.99,,,-99.99,,2013-03-09 07:21:00,
2013-03-08 23:31:00,38.0,36.0,30.21,NNW,332,0.0,0.0,91,-99.99,,,-99.99,,2013-03-09 07:31:00,
2013-03-08 23:41:00,38.0,36.0,30.21,NNW,332,0.0,0.0,91,-99.99,,,-99.99,,2013-03-09 07:41:00,
2013-03-08 23:52:00,38.0,36.0,30.21,NNW,332,0.0,0.0,91,-99.99,,,-99.99,,2013-03-09 07:52:00,